CZ-6A DEB, 58430

Orbit data source: Space-Track

CZ-6A DEB, 58430 is space debris in SSO originally from a launch on Fri, 11 Nov 2022 UTC launched from the Taiyaun Space Center, China (TSC). Debris objects in space refer to the collection of defunct objects orbiting the Earth. Examples of debris include non-operational satellites, rocket bodies, and fragments generated from explosions, collisions, or faulty payload assembly.

Loading next visibility...
Identifier
58430, 2022-151AHY
Orbit
SSO
Country
Flag of CNCN / PRC
Related business
Manufacturer
SAST
Mission
Spacecraft
Bus & Motor
Unknown
Mass
Unknown
Launch date (UTC)
2022-11-11 (4 years ago)
Launch vehicle
Unknown
Launch site
Taiyaun Space Center, China (TSC)
Object type
Payload
Rocket body
Debris
Shape & HBR
Unknown shape, 1.1 m
Radar Cross Section
Small (<0.1 m²)

Expand to show TLE details & history
Last TLE update: 2 days ago

TLE from 2 days ago
0 CZ-6A DEB
1 58430U 22151AHY 26171.41976407  .00004083  00000-0  20591-2 0  9990
2 58430  98.8994 169.9061 0086926   3.0436 357.1248 14.14911514 79364
Epoch: 2026-06-20T10:04Z
TLE epoch observation values (Epoch: 2026-06-20T10:04:27.615Z)
Latitude
-0.00006°
Longitude
110.1564°
Altitude
782.816 km
Speed
7.495 km/s
True Right ascension
11h 19m 37s
True Declination
0° 00' 00"
Sunlit
Object was in daylight at epoch
Visualization orbit readout
Latitude
Unknown
Longitude
Unknown
Altitude
Unknown
Speed
Unknown
Apparent Right ascension
Unknown
Apparent Declination
Unknown
Sunlit
N/A
Visualization observer readout
Local Sidereal Time
21:42:33
Azimuth
Unknown
Elevation
Unknown
Doppler factor
Unknown
Orbital elements
Apogee altitude
902.53 km
Perigee altitude
777.045 km
Semi-major axis
7,217.924 km
Eccentricity
0.00869
Inclination
98.8994°
RAAN
169.9061°
Arg. of periapsis
3.0436°
True anomaly
357.07429°
Mean anomaly
357.1248°
Eccentric anomaly
357.0996°
Mean motion
3.53936 °/min
Orbital period
101.71 mins
BSTAR
0.0020591
Loading maneuver chart data...
Computing Atmospheric mass density...
Loading historical data...
Loading historical data...
Loading historical data...
Loading historical data...
Loading historical data...
Loading historical data...
Loading historical data...

Documentation

Showing up to 5 results
|